Location: Earls Croome
(52.0667°N, 2.2000°W)
Time: 04:12:44
(UTC+00:00)

COSMOS 2455 - Pass Details

Date: 01 March 2020
Orbit: 901 x 909 km, 67.2° (Epoch: 04 April)

Event Time Altitude Azimuth Distance (km) Brightness Sun altitude
Rises 20:48:09 0° 214° (SSW) 3,516 6.0 -27.6°
Reaches altitude 10° 20:50:38 10° 214° (SSW) 2,579 5.3 -28.0°
Enters shadow 20:55:46 67° 206° (SSW) 978 2.9 -28.7°
